Location: Black Swamp Observatory
(41.3920°N, 84.1250°W)
Time: 18:38:48
(UTC-04:00)

Transit 2A Rocket - Pass Details

Date: 25 January 2022
Orbit: 591 x 910 km, 66.7° (Epoch: 20 May)

Event Time Altitude Azimuth Distance (km) Brightness Sun altitude
Rises 18:12:37 0° 180° (S) 3,439 8.6 -5.8°
Reaches altitude 10° 18:15:17 10° 170° (S) 2,537 7.8 -6.3°
Maximum altitude 18:20:30 33° 109° (ESE) 1,484 6.1 -7.2°
Drops below altitude 10° 18:25:50 10° 48° (NE) 2,601 7.2 -8.1°
Enters shadow 18:26:53 - 44° (NE) 2,947 7.5 -8.3°
